This demonstration page uses our WeatherBlox Daily Observations layout. Learn more.

Left ArrowRight Arrow

39.29038, -76.61219

Hourly Observations for February 25, 2021

Temp ( °F °C ) Dew Point ( °F °C ) Humidity (%) Winds ( mph kmh ) Pressure ( in mb ) Visibility ( mi km ) Precip ( " mm )
12:54 am 00:54 Partly Cloudy 51 10.6 36 2.2 56 56 W 9 15 29.85 1011 10 16 N/A
1:54 am 01:54 Mostly Cloudy 55 12.8 36 2.2 49 49 WNW 15 24 29.90 1013 10 16 N/A
2:54 am 02:54 Mostly Clear 52 11.1 32 undefined 47 47 WNW 14 22 29.95 1014 10 16 N/A
3:54 am 03:54 Clear 49 9.4 30 -1.1 48 48 NW 15 24 29.98 1015 10 16 N/A
4:54 am 04:54 Mostly Clear 47 8.3 28 -2.2 48 48 WNW 16 26 30.01 1016 10 16 N/A
5:54 am 05:54 Mostly Clear 45 7.2 27 -2.8 49 49 WNW 15 24 30.04 1017 10 16 N/A
6:54 am 06:54 Mostly Sunny 43 6.1 26 -3.3 51 51 NW 9 15 30.09 1019 10 16 N/A
7:54 am 07:54 Mostly Sunny 45 7.2 26 -3.3 48 48 NW 17 28 30.13 1020 10 16 N/A
8:54 am 08:54 Mostly Sunny 46 7.8 25 -3.9 44 44 NW 10 17 30.18 1022 10 16 N/A
9:54 am 09:54 Mostly Sunny 48 8.9 22 -5.6 36 36 NNW 12 19 30.20 1023 10 16 N/A
10:54 am 10:54 Mostly Sunny 49 9.4 20 -6.7 32 32 NW 5 7 30.21 1023 10 16 N/A
11:54 am 11:54 Sunny 51 10.6 21 -6.1 31 31 WNW 12 19 30.22 1023 10 16 N/A
12:54 pm 12:54 Sunny 52 11.1 20 -6.7 28 28 WNW 8 13 30.20 1023 10 16 N/A
1:54 pm 13:54 Sunny 54 12.2 17 -8.3 23 23 NNW 10 17 30.18 1022 10 16 N/A
2:54 pm 14:54 Sunny 54 12.2 16 -8.9 22 22 WNW 15 24 30.18 1022 10 16 N/A
3:54 pm 15:54 Sunny 54 12.2 16 -8.9 22 22 WNW 9 15 30.20 1023 10 16 N/A
4:54 pm 16:54 Mostly Sunny 51 10.6 14 -10 23 23 WNW 12 19 30.21 1023 10 16 N/A
5:54 pm 17:54 Mostly Sunny 48 8.9 14 -10 25 25 NW 7 11 30.22 1023 10 16 N/A
6:54 pm 18:54 Clear 47 8.3 15 -9.4 28 28 NNW 3 6 30.24 1024 10 16 N/A
7:54 pm 19:54 Clear 40 4.4 18 -7.8 41 41 N N/A 30.26 1025 10 16 N/A
8:54 pm 20:54 Clear 36 2.2 17 -8.3 46 46 N N/A 30.27 1025 10 16 N/A
9:54 pm 21:54 Clear 35 1.7 18 -7.8 50 50 W 3 6 30.29 1026 10 16 N/A
10:54 pm 22:54 Partly Cloudy 33 0.6 19 -7.2 56 56 N N/A 30.29 1026 10 16 N/A
11:54 pm 23:54 Mostly Cloudy 33 0.6 22 -5.6 64 64 WNW 3 6 30.29 1026 10 16 N/A

Powered by AerisWeather